SCP
0 0 0 0 0 -0 -0 -0 -0 -0 -0 -0 0 0 0 0 0 0 0 0 0 0 0 0 0 0 0 0 0 0 0 0
0 0 0 0 0 -0 -0 -0 -0 -0 -0 -0 -0 0 0 0 0 0 0 0 0 0 0 0 0 0 0 0 0 0 0 0
0 0 0 0 0 -0 -0 -0 -0 -0 -0 -0 -0 0 0 0 0 0 0 0 0 0 0 0 0 0 0 0 0 0 0 0
0 0 0 0 0 0 -0 -0 -0 -0 -0 -0 -0 0 0 0 0 0 0 0 0 0 0 0 0 0 0 0 0 0 0 0
0 0 0 0 0 0 -0 -0 -0 -0 -0 -0 -0 -0 0 0 0 0 0 0 0 -0 0 0 0 0 0 0 0 0 0 0
0 0 0 0 0 0 0 -0 -0 -0 -0 -0 -0 0 0 0 0 0 0 0 0 0 0 0 0 0 0 0 0 0 0 0
0 0 0 0 0 0 0 0 -0 -0 -0 -0 -0 0 0 0 0 0 0 0 0 0 0 0 0 0 0 0 0 0 0 0
0 0 0 0 0 0 0 0 -0 -0 -0 -0 -0 0 0 0 0 0 0 0 0 0 0 0 0 0 0 0 0 0 0 0
0 0 0 0 0 0 0 0 -0 -0 -0 -0 -0 0 -0 0 0 0 0 0 0 0 0 0 0 0 0 0 0 0 0 0
0 0 0 0 0 0 0 0 0 0 -0 -0 -0 -0 0 0 0 0 0 0 0 0 0 0 0 0 0 0 0 0 0 0
0 0 0 0 0 0 0 0 0 0 -0 -0 0 0 0 0 0 0 0 0 0 0 0 0 0 0 0 0 0 0 0 0
0 0 0 0 0 0 0 0 0 -0 0 -0 0 0 0 0 0 0 0 0 0 0 0 0 0 0 0 0 0 0 0 0
0 0 0 0 0 0 0 0 0 0 0 0 -0 -0 0 0 0 0 0 0 0 0 0 0 0 0 0 0 0 0 0 0
0 0 0 0 0 0 0 0 0 0 0 0 0 -0 0 0 0 0 0 0 0 0 0 0 0 0 0 0 0 0 0 0
0 0 0 0 0 0 0 0 0 0 0 0 0 0 -0 -0 0 -0 0 0 0 0 0 0 0 0 0 0 0 0 0 0
0 0 0 0 0 0 0 0 0 0 0 0 0 0 -0 -0 0 0 0 0 0 0 0 0 0 0 0 0 0 0 0 0
0 0 0 0 0 0 0 0 0 0 0 0 0 0 -0 0 0 0 0 0 0 0 0 0 0 0 0 0 0 0 0 0
0 0 0 0 0 0 0 0 0 0 0 0 0 0 -0 0 -0 0 0 0 0 0 0 0 0 0 0 0 0 0 0 0
0 0 0 0 0 0 0 0 0 0 0 0 0 0 0 0 -0 -0 -0 -0 0 0 0 0 0 0 0 0 0 0 0 0
Wind_Speed_500mb
21 19 23 28 35 41 51 59 67 67 66 59 48 46 42 34 36 28 26 21 29 28 25 32 45 41 39 45 44 75 62 78
28 27 26 27 30 35 45 54 59 63 61 55 53 49 47 38 34 36 30 25 23 33 15 24 34 51 38 36 35 50 60 64
34 33 33 31 29 32 40 46 51 54 55 54 53 50 43 41 37 33 35 27 21 23 22 11 21 34 43 32 41 36 47 72
35 38 38 32 27 31 36 37 43 46 50 51 49 44 40 38 43 39 34 34 27 20 26 17 14 20 40 37 36 40 49 61
44 44 38 32 27 27 32 33 39 40 44 47 49 46 46 45 43 46 39 34 34 20 24 20 15 17 28 39 37 34 27 63
47 39 33 30 25 29 28 32 37 38 37 38 44 46 42 40 39 43 38 31 31 24 19 24 14 16 27 29 36 33 43 45
43 35 28 28 28 25 26 32 34 33 34 34 43 50 46 42 42 40 42 38 31 29 14 20 13 17 13 18 29 34 58 55
36 28 25 27 26 23 27 30 30 31 32 34 45 46 42 37 38 39 43 40 35 30 22 14 15 14 13 15 24 30 37 66
28 28 25 23 24 22 25 24 27 27 29 34 45 41 35 34 34 40 37 36 36 33 26 20 15 15 13 9 12 37 41 52
21 23 24 24 20 24 25 22 25 24 29 38 42 36 33 34 36 39 36 24 28 28 26 25 19 12 19 13 7 21 36 35
19 20 20 18 19 25 21 25 26 30 32 39 37 32 31 32 35 36 28 23 24 28 29 30 22 16 13 9 11 17 17 33
18 18 19 17 21 20 25 29 31 30 37 36 31 27 28 31 31 31 24 22 23 28 30 31 26 18 11 6 8 5 13 27
17 17 20 19 18 22 27 28 25 35 35 29 22 23 25 27 28 25 21 22 23 28 28 26 26 23 15 2 5 2 3 14
19 15 17 19 19 23 20 22 30 33 22 23 22 22 24 26 25 23 19 23 29 35 31 26 23 22 21 9 4 7 5 8
18 16 15 17 18 18 18 20 30 17 20 23 24 27 29 21 20 21 21 25 29 32 35 32 26 21 20 17 10 4 2 2
17 17 18 17 18 13 16 18 22 16 18 23 26 25 25 23 21 19 21 24 27 33 34 32 29 20 21 21 16 7 5 1
17 19 19 17 14 11 12 14 17 14 16 21 24 24 22 20 23 16 17 19 26 29 30 31 31 27 20 19 21 16 6 6
15 17 18 15 11 10 10 11 15 12 14 15 20 24 20 14 18 21 23 27 28 26 26 25 28 29 26 24 20 16 16 9
15 12 13 11 12 11 13 10 12 10 11 16 13 17 17 9 15 21 25 28 28 24 22 22 22 24 27 26 20 16 14 13
Wind_Direction_500mb
284 303 322 337 346 351 352 354 353 352 354 354 352 352 356 348 347 326 309 325 305 297 254 253 240 228 240 230 223 214 208 207
267 280 294 309 326 339 347 350 351 351 354 356 353 350 352 348 347 344 309 313 304 309 280 239 243 229 225 224 235 211 209 209
262 267 277 285 306 332 342 345 349 350 352 354 352 348 348 351 343 347 338 300 317 311 307 266 237 216 217 214 217 219 218 222
263 266 272 278 301 322 333 339 344 344 349 351 352 350 348 349 349 342 345 331 307 317 315 316 259 224 210 212 220 218 221 208
265 262 268 275 297 316 322 331 336 335 346 349 351 353 348 347 346 343 341 339 329 308 304 318 302 235 207 211 220 215 229 194
270 266 259 265 288 303 311 327 333 334 344 344 348 349 346 342 345 344 343 345 341 324 296 308 323 274 211 211 213 229 201 198
276 262 260 269 284 300 311 327 334 338 343 341 344 347 346 344 345 348 347 349 350 348 310 299 330 297 223 189 208 200 197 206
278 269 268 270 287 298 319 323 335 337 343 339 343 345 345 345 346 347 347 346 351 350 355 309 312 313 280 185 176 172 219 211
294 287 285 291 297 305 313 314 329 330 335 340 341 342 345 344 343 347 345 347 351 358 349 348 300 308 325 265 195 182 212 218
318 312 298 302 296 312 313 325 340 330 333 338 336 341 343 341 343 345 344 351 0 357 353 355 336 319 288 348 142 185 206 208
324 328 318 309 304 317 326 332 346 333 333 332 334 339 342 343 347 345 355 10 6 3 3 4 341 315 305 321 342 203 200 206
312 328 334 327 322 328 337 336 331 330 331 332 335 339 344 352 1 360 12 8 6 6 2 1 359 355 314 309 334 122 197 194
311 327 345 339 338 340 330 331 329 332 336 345 354 354 352 358 8 12 16 8 12 2 2 7 11 20 21 73 10 10 212 247
319 324 340 339 341 330 329 330 331 337 358 7 9 4 4 10 27 18 20 16 11 1 11 14 20 30 32 40 354 70 82 195
321 324 305 317 327 324 334 329 341 1 8 7 7 7 8 20 21 33 33 15 10 7 14 16 18 28 31 32 29 27 294 225
309 314 291 292 310 310 326 331 353 9 7 3 4 10 17 13 30 29 38 19 20 18 17 18 17 10 23 23 22 19 319 216
300 304 295 276 298 292 305 326 352 1 360 359 357 1 360 8 24 35 22 23 4 9 14 19 20 18 14 10 359 3 323 282
296 307 304 281 278 277 281 312 348 347 351 347 351 358 354 4 15 15 14 11 8 7 12 21 23 20 14 8 10 5 360 313
282 287 285 270 253 264 261 286 334 329 326 345 337 354 1 351 0 1 2 2 2 2 5 13 19 20 16 13 25 15 11 7
Wind_Speed_850mb
21 19 23 28 35 41 51 59 67 67 66 59 48 46 42 34 36 28 26 21 29 28 25 32 45 41 39 45 44 75 62 78
28 27 26 27 30 35 45 54 59 63 61 55 53 49 47 38 34 36 30 25 23 33 15 24 34 51 38 36 35 50 60 64
34 33 33 31 29 32 40 46 51 54 55 54 53 50 43 41 37 33 35 27 21 23 22 11 21 34 43 32 41 36 47 72
35 38 38 32 27 31 36 37 43 46 50 51 49 44 40 38 43 39 34 34 27 20 26 17 14 20 40 37 36 40 49 61
44 44 38 32 27 27 32 33 39 40 44 47 49 46 46 45 43 46 39 34 34 20 24 20 15 17 28 39 37 34 27 63
47 39 33 30 25 29 28 32 37 38 37 38 44 46 42 40 39 43 38 31 31 24 19 24 14 16 27 29 36 33 43 45
43 35 28 28 28 25 26 32 34 33 34 34 43 50 46 42 42 40 42 38 31 29 14 20 13 17 13 18 29 34 58 55
36 28 25 27 26 23 27 30 30 31 32 34 45 46 42 37 38 39 43 40 35 30 22 14 15 14 13 15 24 30 37 66
28 28 25 23 24 22 25 24 27 27 29 34 45 41 35 34 34 40 37 36 36 33 26 20 15 15 13 9 12 37 41 52
21 23 24 24 20 24 25 22 25 24 29 38 42 36 33 34 36 39 36 24 28 28 26 25 19 12 19 13 7 21 36 35
19 20 20 18 19 25 21 25 26 30 32 39 37 32 31 32 35 36 28 23 24 28 29 30 22 16 13 9 11 17 17 33
18 18 19 17 21 20 25 29 31 30 37 36 31 27 28 31 31 31 24 22 23 28 30 31 26 18 11 6 8 5 13 27
17 17 20 19 18 22 27 28 25 35 35 29 22 23 25 27 28 25 21 22 23 28 28 26 26 23 15 2 5 2 3 14
19 15 17 19 19 23 20 22 30 33 22 23 22 22 24 26 25 23 19 23 29 35 31 26 23 22 21 9 4 7 5 8
18 16 15 17 18 18 18 20 30 17 20 23 24 27 29 21 20 21 21 25 29 32 35 32 26 21 20 17 10 4 2 2
17 17 18 17 18 13 16 18 22 16 18 23 26 25 25 23 21 19 21 24 27 33 34 32 29 20 21 21 16 7 5 1
17 19 19 17 14 11 12 14 17 14 16 21 24 24 22 20 23 16 17 19 26 29 30 31 31 27 20 19 21 16 6 6
15 17 18 15 11 10 10 11 15 12 14 15 20 24 20 14 18 21 23 27 28 26 26 25 28 29 26 24 20 16 16 9
15 12 13 11 12 11 13 10 12 10 11 16 13 17 17 9 15 21 25 28 28 24 22 22 22 24 27 26 20 16 14 13
Wind_Direction_850mb
284 303 322 337 346 351 352 354 353 352 354 354 352 352 356 348 347 326 309 325 305 297 254 253 240 228 240 230 223 214 208 207
267 280 294 309 326 339 347 350 351 351 354 356 353 350 352 348 347 344 309 313 304 309 280 239 243 229 225 224 235 211 209 209
262 267 277 285 306 332 342 345 349 350 352 354 352 348 348 351 343 347 338 300 317 311 307 266 237 216 217 214 217 219 218 222
263 266 272 278 301 322 333 339 344 344 349 351 352 350 348 349 349 342 345 331 307 317 315 316 259 224 210 212 220 218 221 208
265 262 268 275 297 316 322 331 336 335 346 349 351 353 348 347 346 343 341 339 329 308 304 318 302 235 207 211 220 215 229 194
270 266 259 265 288 303 311 327 333 334 344 344 348 349 346 342 345 344 343 345 341 324 296 308 323 274 211 211 213 229 201 198
276 262 260 269 284 300 311 327 334 338 343 341 344 347 346 344 345 348 347 349 350 348 310 299 330 297 223 189 208 200 197 206
278 269 268 270 287 298 319 323 335 337 343 339 343 345 345 345 346 347 347 346 351 350 355 309 312 313 280 185 176 172 219 211
294 287 285 291 297 305 313 314 329 330 335 340 341 342 345 344 343 347 345 347 351 358 349 348 300 308 325 265 195 182 212 218
318 312 298 302 296 312 313 325 340 330 333 338 336 341 343 341 343 345 344 351 0 357 353 355 336 319 288 348 142 185 206 208
324 328 318 309 304 317 326 332 346 333 333 332 334 339 342 343 347 345 355 10 6 3 3 4 341 315 305 321 342 203 200 206
312 328 334 327 322 328 337 336 331 330 331 332 335 339 344 352 1 360 12 8 6 6 2 1 359 355 314 309 334 122 197 194
311 327 345 339 338 340 330 331 329 332 336 345 354 354 352 358 8 12 16 8 12 2 2 7 11 20 21 73 10 10 212 247
319 324 340 339 341 330 329 330 331 337 358 7 9 4 4 10 27 18 20 16 11 1 11 14 20 30 32 40 354 70 82 195
321 324 305 317 327 324 334 329 341 1 8 7 7 7 8 20 21 33 33 15 10 7 14 16 18 28 31 32 29 27 294 225
309 314 291 292 310 310 326 331 353 9 7 3 4 10 17 13 30 29 38 19 20 18 17 18 17 10 23 23 22 19 319 216
300 304 295 276 298 292 305 326 352 1 360 359 357 1 360 8 24 35 22 23 4 9 14 19 20 18 14 10 359 3 323 282
296 307 304 281 278 277 281 312 348 347 351 347 351 358 354 4 15 15 14 11 8 7 12 21 23 20 14 8 10 5 360 313
282 287 285 270 253 264 261 286 334 329 326 345 337 354 1 351 0 1 2 2 2 2 5 13 19 20 16 13 25 15 11 7